When you browse on this site, cookies collect data to enhance your experience and personalize the content and advertising you see.
Visit our Privacy Policy to learn more. By continuing to use the site, you agree to this use of cookies and data.
  • In Schweiz
  • Länderverzeichnis
  • Für 7 Tage
  • Wassertemperatur
  • Satellitenkarten
  • Wetterkarte
  • Widgets
  • user-avatar
    Anmelden

    Stündliche Wetter Eberswalde

    Heute, 18 Juli, Donnerstag

    Zeit Temperatur Niederschläge Wind Luftdruck Luftfeuchtigkeit
    00:00 +14°C° 0 mm 1 m/S 756 mmHg 84%
    01:00 +14°C° 0 mm 1 m/S 756 mmHg 85%
    02:00 +13°C° 0 mm 1 m/S 756 mmHg 86%
    03:00 +13°C° 0 mm 1 m/S 756 mmHg 88%
    04:00 +12°C° 0 mm 1 m/S 756 mmHg 89%
    05:00 +14°C° 0 mm 1 m/S 756 mmHg 83%
    06:00 +15°C° 0 mm 1 m/S 756 mmHg 78%
    07:00 +18°C° 0 mm 1 m/S 756 mmHg 72%
    08:00 +20°C° 0 mm 1 m/S 756 mmHg 65%
    09:00 +22°C° 0 mm 1 m/S 756 mmHg 58%
    10:00 +23°C° 0 mm 1 m/S 756 mmHg 51%
    11:00 +24°C° 0 mm 1 m/S 756 mmHg 48%
    12:00 +25°C° 0 mm 1 m/S 755 mmHg 45%
    13:00 +26°C° 0 mm 1 m/S 755 mmHg 42%
    14:00 +26°C° 0 mm 1 m/S 755 mmHg 42%
    15:00 +26°C° 0 mm 1 m/S 755 mmHg 43%
    16:00 +26°C° 0 mm 2 m/S 755 mmHg 44%
    17:00 +25°C° 0 mm 2 m/S 755 mmHg 48%
    18:00 +24°C° 0 mm 2 m/S 754 mmHg 53%
    19:00 +23°C° 0 mm 2 m/S 754 mmHg 57%
    20:00 +21°C° 0 mm 2 m/S 755 mmHg 58%
    21:00 +20°C° 0 mm 2 m/S 755 mmHg 59%
    22:00 +19°C° 0 mm 2 m/S 755 mmHg 60%
    23:00 +19°C° 0 mm 2 m/S 755 mmHg 59%

    Morgen, 19 Juli, Freitag

    Zeit Temperatur Niederschläge Wind Luftdruck Luftfeuchtigkeit
    00:00 +19°C° 0 mm 2 m/S 755 mmHg 58%
    01:00 +19°C° 0 mm 2 m/S 755 mmHg 56%
    02:00 +18°C° 0 mm 2 m/S 755 mmHg 58%
    03:00 +18°C° 0 mm 2 m/S 755 mmHg 60%
    04:00 +17°C° 0 mm 2 m/S 755 mmHg 62%
    05:00 +19°C° 0 mm 1 m/S 755 mmHg 62%
    06:00 +20°C° 0 mm 1 m/S 755 mmHg 63%
    07:00 +21°C° 0 mm 1 m/S 755 mmHg 64%
    08:00 +22°C° 0 mm 1 m/S 755 mmHg 62%
    09:00 +23°C° 0 mm 1 m/S 756 mmHg 61%
    10:00 +24°C° 0 mm 1 m/S 756 mmHg 60%
    11:00 +25°C° 0.4 mm 2 m/S 756 mmHg 58%
    12:00 +26°C° 0.4 mm 2 m/S 755 mmHg 55%
    13:00 +27°C° 0.4 mm 2 m/S 755 mmHg 53%
    14:00 +26°C° 1 mm 2 m/S 755 mmHg 55%
    15:00 +26°C° 1 mm 2 m/S 755 mmHg 57%
    16:00 +26°C° 1 mm 2 m/S 755 mmHg 60%
    17:00 +25°C° 0.4 mm 1 m/S 755 mmHg 65%
    18:00 +24°C° 0.4 mm 1 m/S 755 mmHg 70%
    19:00 +24°C° 0.4 mm 1 m/S 755 mmHg 75%
    20:00 +22°C° 0 mm 1 m/S 756 mmHg 78%
    21:00 +19°C° 0 mm 0 m/S 756 mmHg 81%
    22:00 +18°C° 0 mm 0 m/S 756 mmHg 84%
    23:00 +17°C° 0 mm 0 m/S 756 mmHg 84%

    übermorgen, 20 Juli, Samstag

    Zeit Temperatur Niederschläge Wind Luftdruck Luftfeuchtigkeit
    00:00 +19°C° 0 mm 1 m/S 756 mmHg 85%
    01:00 +19°C° 0 mm 1 m/S 756 mmHg 85%
    02:00 +19°C° 0 mm 1 m/S 757 mmHg 86%
    03:00 +18°C° 0 mm 1 m/S 757 mmHg 88%
    04:00 +18°C° 0 mm 1 m/S 757 mmHg 89%
    05:00 +19°C° 0 mm 1 m/S 757 mmHg 84%
    06:00 +21°C° 0 mm 1 m/S 757 mmHg 80%
    07:00 +22°C° 0 mm 1 m/S 756 mmHg 76%
    08:00 +23°C° 0 mm 1 m/S 757 mmHg 70%
    09:00 +25°C° 0 mm 1 m/S 757 mmHg 64%
    10:00 +26°C° 0 mm 2 m/S 757 mmHg 58%
    11:00 +28°C° 0 mm 2 m/S 757 mmHg 53%
    12:00 +29°C° 0 mm 3 m/S 757 mmHg 48%
    13:00 +30°C° 0 mm 3 m/S 756 mmHg 43%
    14:00 +30°C° 0 mm 3 m/S 756 mmHg 45%
    15:00 +30°C° 0 mm 2 m/S 756 mmHg 46%
    16:00 +30°C° 0 mm 2 m/S 756 mmHg 48%
    17:00 +29°C° 0 mm 2 m/S 756 mmHg 53%
    18:00 +28°C° 0 mm 2 m/S 756 mmHg 57%
    19:00 +27°C° 0 mm 2 m/S 756 mmHg 61%
    20:00 +25°C° 1 mm 2 m/S 756 mmHg 68%
    21:00 +24°C° 1 mm 3 m/S 756 mmHg 75%
    22:00 +21°C° 1 mm 3 m/S 756 mmHg 82%
    23:00 +20°C° 0.8 mm 3 m/S 756 mmHg 83%

    21 Juli, Sonntag

    Zeit Temperatur Niederschläge Wind Luftdruck Luftfeuchtigkeit
    00:00 +20°C° 0.8 mm 2 m/S 756 mmHg 83%
    01:00 +19°C° 0.8 mm 2 m/S 756 mmHg 84%
    02:00 +19°C° 0.1 mm 2 m/S 756 mmHg 86%
    03:00 +19°C° 0.1 mm 1 m/S 756 mmHg 88%
    04:00 +19°C° 0.1 mm 1 m/S 756 mmHg 90%
    05:00 +19°C° 0.2 mm 2 m/S 756 mmHg 87%
    06:00 +21°C° 0.2 mm 2 m/S 756 mmHg 85%
    07:00 +22°C° 0.2 mm 3 m/S 756 mmHg 82%
    08:00 +23°C° 1.6 mm 4 m/S 757 mmHg 79%
    09:00 +23°C° 1.6 mm 4 m/S 757 mmHg 75%
    10:00 +25°C° 1.6 mm 5 m/S 757 mmHg 72%
    11:00 +26°C° 0.8 mm 5 m/S 758 mmHg 69%
    12:00 +26°C° 0.8 mm 4 m/S 758 mmHg 66%
    13:00 +26°C° 0.8 mm 4 m/S 758 mmHg 63%
    14:00 +26°C° 0.4 mm 4 m/S 758 mmHg 62%
    15:00 +26°C° 0.4 mm 4 m/S 759 mmHg 61%
    16:00 +27°C° 0.4 mm 4 m/S 759 mmHg 59%
    17:00 +26°C° 0.1 mm 4 m/S 759 mmHg 63%
    18:00 +25°C° 0.1 mm 3 m/S 760 mmHg 67%
    19:00 +24°C° 0.1 mm 3 m/S 760 mmHg 71%
    20:00 +23°C° 0 mm 2 m/S 760 mmHg 76%
    21:00 +20°C° 0 mm 2 m/S 761 mmHg 82%
    22:00 +19°C° 0 mm 2 m/S 761 mmHg 87%
    23:00 +18°C° 0 mm 2 m/S 761 mmHg 87%

    22 Juli, Montag

    Zeit Temperatur Niederschläge Wind Luftdruck Luftfeuchtigkeit
    00:00 +18°C° 0 mm 2 m/S 762 mmHg 88%
    01:00 +17°C° 0 mm 2 m/S 762 mmHg 88%
    02:00 +18°C° 0 mm 1 m/S 762 mmHg 89%
    03:00 +16°C° 0 mm 1 m/S 762 mmHg 90%
    04:00 +16°C° 0 mm 1 m/S 762 mmHg 92%
    05:00 +18°C° 0 mm 1 m/S 763 mmHg 87%
    06:00 +18°C° 0 mm 2 m/S 763 mmHg 82%
    07:00 +19°C° 0 mm 2 m/S 763 mmHg 77%
    08:00 +21°C° 0 mm 2 m/S 763 mmHg 69%
    09:00 +23°C° 0 mm 2 m/S 763 mmHg 61%
    10:00 +25°C° 0 mm 3 m/S 764 mmHg 53%
    11:00 +26°C° 0 mm 3 m/S 763 mmHg 49%
    12:00 +27°C° 0 mm 3 m/S 763 mmHg 46%
    13:00 +27°C° 0 mm 3 m/S 763 mmHg 43%
    14:00 +27°C° 0 mm 3 m/S 763 mmHg 44%
    15:00 +27°C° 0 mm 3 m/S 763 mmHg 45%
    16:00 +27°C° 0 mm 3 m/S 763 mmHg 46%
    17:00 +26°C° 0 mm 3 m/S 763 mmHg 53%
    18:00 +24°C° 0 mm 3 m/S 763 mmHg 59%
    19:00 +22°C° 0 mm 3 m/S 763 mmHg 65%
    20:00 +20°C° 0 mm 3 m/S 763 mmHg 69%
    21:00 +18°C° 0 mm 2 m/S 763 mmHg 74%
    22:00 +16°C° 0 mm 2 m/S 764 mmHg 78%
    23:00 +16°C° 0 mm 2 m/S 764 mmHg 80%

    23 Juli, Dienstag

    Zeit Temperatur Niederschläge Wind Luftdruck Luftfeuchtigkeit
    00:00 +15°C° 0 mm 1 m/S 764 mmHg 83%
    01:00 +15°C° 0 mm 1 m/S 764 mmHg 85%
    02:00 +14°C° 0 mm 1 m/S 763 mmHg 86%
    03:00 +14°C° 0 mm 1 m/S 763 mmHg 87%
    04:00 +14°C° 0 mm 1 m/S 763 mmHg 88%
    05:00 +15°C° 0 mm 1 m/S 763 mmHg 82%
    06:00 +18°C° 0 mm 1 m/S 763 mmHg 76%
    07:00 +19°C° 0 mm 1 m/S 763 mmHg 70%
    08:00 +21°C° 0 mm 1 m/S 763 mmHg 64%
    09:00 +23°C° 0 mm 2 m/S 763 mmHg 59%
    10:00 +25°C° 0 mm 2 m/S 763 mmHg 53%
    11:00 +26°C° 0 mm 2 m/S 763 mmHg 51%
    12:00 +27°C° 0 mm 3 m/S 763 mmHg 49%
    13:00 +28°C° 0 mm 3 m/S 762 mmHg 47%
    14:00 +29°C° 0 mm 3 m/S 762 mmHg 47%
    15:00 +29°C° 0 mm 3 m/S 762 mmHg 48%
    16:00 +29°C° 0 mm 3 m/S 761 mmHg 48%
    17:00 +27°C° 0 mm 3 m/S 761 mmHg 55%
    18:00 +26°C° 0 mm 3 m/S 761 mmHg 63%
    19:00 +25°C° 0 mm 3 m/S 761 mmHg 70%
    20:00 +22°C° 0 mm 3 m/S 761 mmHg 76%
    21:00 +20°C° 0 mm 3 m/S 761 mmHg 83%
    22:00 +19°C° 0 mm 3 m/S 761 mmHg 89%
    23:00 +18°C° 0 mm 3 m/S 761 mmHg 91%
    Mehr zeigen